Location: Unspecified
(0.0000°N, 0.0000°E)
Time: 18:55:35
(UTC+00:00)

deb Briz - Pass Details

Date: 14 February 2026
Orbit: 1683 x 2323 km, 64.7° (Epoch: 11 March)

Event Time Altitude Azimuth Distance (km) Brightness Sun altitude
Rises 19:30:37 0° 208° (SSW) 5,592 ? -18.6°
Reaches altitude 10° 19:33:57 10° 210° (SSW) 4,658 ? -19.4°
Maximum altitude 19:46:20 68° 291° (WNW) 2,405 ? -22.4°
Drops below altitude 10° 19:59:28 10° 12° (NNE) 4,896 ? -25.6°
Sets 20:03:06 0° 15° (NNE) 5,887 ? -26.5°
